Regional Weather Roundup
Issued by NWS Albany, NY

Home | Current Version | Previous Version | Text Only | Print | Product List | Glossary On
Versions: 1 2 3 4 5 6 7 8 9 10 11 12 13 14 15 16 17 18 19 20 21 22 23 24 25 26 27 28 29 30 31 32 33 34 35 36 37 38 39 40 41 42 43 44 45 46 47 48 49 50
000
ASUS41 KALY 290610
RWRALY

NEW YORK STATE HOURLY WEATHER ROUNDUP
NATIONAL WEATHER SERVICE ALBANY NY
200 AM EDT FRI MAY 29 2015

NOTE: "FAIR" INDICATES FEW OR NO CLOUDS BELOW 12,000 FEET WITH NO
SIGNIFICANT WEATHER AND/OR NO OBSTRUCTIONS TO VISIBILITY.

NYZ032-033-038>043-046>054-057>066-NYZ062>081-290700-
EAST


CITY           SKY/WX    TMP DP  RH WIND       PRES   REMARKS
ALBANY         CLEAR     60  54  80 N7        30.27F
GLENS FALLS    PTCLDY    58  54  86 W5        30.27S
POUGHKEEPSIE   CLEAR     58  54  86 CALM      30.26R
NEWBURGH       CLEAR     59  55  88 CALM      30.28R
MONTGOMERY     CLEAR     55  54  96 S3        30.27S
WHITE PLAINS   CLEAR     62  54  74 NW5       30.25S
ISLIP          PTCLDY    65  54  67 N7        30.22S
NEW YORK CITY  PTCLDY    69  53  56 N9        30.25R
CENTRAL PARK   CLEAR     70  52  52 VRB7      30.28S
$$

NYZ005>009-017-018-044>046-055-056-290700-
CENTRAL


CITY           SKY/WX    TMP DP  RH WIND       PRES   REMARKS
FULTON         CLEAR     56  53  90 SE3       30.28F
SYRACUSE       PTCLDY    56  53  90 E6        30.28S
ROME           CLEAR     54  52  93 E3        30.31S
ELMIRA         CLEAR     50  50 100 CALM      30.30S
BINGHAMTON     CLEAR     57  52  83 SE3       30.31F
MONTICELLO     CLEAR     52  52 100 S3        30.31R
$$

NYZ026>034-041>043-290700-
NORTH


CITY           SKY/WX    TMP DP  RH WIND       PRES   REMARKS
WATERTOWN      CLEAR     49  47  93 CALM      30.27R
FORT DRUM      NOT AVBL
MASSENA        MOCLDY    50  48  93 CALM      30.29F FOG
SARANAC LAKE   FOG       46  46 100 CALM      30.30R VSB 1/4
PLATTSBURGH    MOCLDY    60  54  80 NW6       30.28S
$$

NYZ001>004-010>016-019>021-290700-
WEST


CITY           SKY/WX    TMP DP  RH WIND       PRES   REMARKS
NIAGARA FALLS  CLEAR     56  51  84 E5        30.24F
BUFFALO        CLEAR     60  54  80 E6        30.25F
DUNKIRK        CLEAR     55  52  89 CALM      30.24F
JAMESTOWN      CLEAR     61  48  63 CALM      30.29S
WELLSVILLE     CLEAR     55  51  86 E3        30.32F
ROCHESTER      PTCLDY    58  55  90 CALM      30.28S
PENN YAN       CLEAR     57  54  89 SW5       30.29F
$$

             KEY
       WCI = WIND CHILL INDEX
       VSB = VISIBILITY
       HX  = HEAT INDEX
$$



USA.gov is the U.S. government's official web portal to all federal, state and local government web resources and services.